Starlink 30375

operational
NORAD ID: 57732 Int'l Des: 2023-131 Owner: SPXS Country: US Constellation: starlink
LEOCIRCULAR

About Starlink 30375

Description loading...

Live Position

Loading 3D Globe...

Upcoming Passes

Altitude History

Altitude vs Time

uPlot chart will show altitude changes over time

Two-Line Element Set

1 57732U 23131A 25306.20341284 .00001205 00000-0 10427-3 0 9999
2 57732 43.0030 132.0199 0001333 261.9761 98.0930 15.02527392120900
Epoch: Nov 2, 2025 • Age: 12 hours

Current Status

Altitude 558.3 km
Velocity 7.58 km/s
Sub-Earth Point 9.20°N, 5.35°E
Launch Date Sep 1, 2023
Age 2.1 years
Type internet

Technical Details

Classification Payload
Mass 730.00 kg
Dry Mass 700.00 kg
Total Mass 730.00 kg
Length 0.30 m
Diameter 4.10 m
Span 29.00 m
Shape Box + pan
Manufacturer SPXS
Bus Type Starlink V2M
Phase Status In Orbit
Owner/State SPXS/US

Large Constellations

Loading constellations...